Location: Baix
(44.7118°N, 4.7648°E)
Time: 01:52:03
(UTC+00:00)

Vanguard 1 Rocket - Pass Details

Date: 07 October 2022
Orbit: 650 x 4225 km, 34.3° (Epoch: 05 December)

Event Time Altitude Azimuth Distance (km) Brightness Sun altitude
Rises 18:35:49 0° 241° (WSW) 8,448 13.2 -15.9°
Reaches altitude 10° 18:42:10 10° 238° (WSW) 7,277 12.7 -17.0°
Maximum altitude 19:04:20 54° 170° (S) 3,424 10.1 -20.9°
Enters shadow 19:12:18 30° 111° (ESE) 3,585 9.8 -22.3°
